Retour au catalogue

CUBY-4

ActifScienceSSO
NORAD 69874·PAYLOAD·🇺🇸 United States

Lancé Jul 7, 2026 depuis Vandenberg Space Force Base

Loading…

Prochains Passages (prochaines 24 heures)

TLE

FraisSource: Space-Track

Époque: Sep 13, 2026, 15:57 UTC

1 69874U 26156F   26256.66476403  .00000643  00000-0  70652-4 0  9998
2 69874  97.7442 155.8726 0001544 263.0744  97.0298 14.90968684 10183

Suivez CUBY-4 en temps réel avec AllMySat

Download on the App Store